TimeEST,TemperatureF,Dew PointF,Humidity,Sea Level PressureIn,VisibilityMPH,Wind Direction,Wind SpeedMPH,Gust SpeedMPH,PrecipitationIn,Events,Conditions,WindDirDegrees,DateUTC
12:00 AM,75.2,71.6,89,30.04,6.2,NNW,13.8,-,N/A,,Scattered Clouds,340,2013-03-07 05:00:00
1:00 AM,73,69,84,30.03,12,SSE,3.5,,,,Haze,150,2013-03-07 06:00:00
1:00 AM,73.4,69.8,88,30.01,6.2,SSE,3.5,-,N/A,,Mostly Cloudy,150,2013-03-07 06:00:00
2:00 AM,73.4,69.8,88,30.01,6.2,NE,3.5,-,N/A,,Mostly Cloudy,40,2013-03-07 07:00:00
3:00 AM,75.2,66.2,73,3.10,6.2,NNE,13.8,-,N/A,,Scattered Clouds,20,2013-03-07 08:00:00
4:00 AM,76,66,63,29.99,12,NNE,10.4,,,,Scattered Clouds,20,2013-03-07 09:00:00
4:00 AM,75.2,66.2,73,29.98,6.2,NNE,10.4,-,N/A,,Partly Cloudy,20,2013-03-07 09:00:00
5:00 AM,75.2,64.4,69,29.98,6.2,NNE,11.5,-,N/A,,Partly Cloudy,30,2013-03-07 10:00:00
6:00 AM,75.2,66.2,73,30.01,6.2,NNE,12.7,-,N/A,,Partly Cloudy,30,2013-03-07 11:00:00
7:00 AM,75,66,67,30.04,16,NE,13.8,,,,Haze,40,2013-03-07 12:00:00
7:00 AM,-9999,-9999,N/A,-9999,-9999.0,NE,13.8,-,N/A,,Unknown,40,2013-03-07 12:00:00
8:00 AM,77.0,68.0,74,30.04,6.2,NNE,13.8,-,N/A,,Scattered Clouds,30,2013-03-07 13:00:00
9:00 AM,78.8,69.8,74,30.06,6.2,NNE,11.5,-,N/A,,Partly Cloudy,30,2013-03-07 14:00:00
10:00 AM,81,69,59,30.08,16,NE,11.5,,,,Scattered Clouds,40,2013-03-07 15:00:00
10:00 AM,80.6,69.8,70,30.06,6.2,NE,11.5,-,N/A,,Partly Cloudy,40,2013-03-07 15:00:00
11:00 AM,80.6,68.0,65,30.06,6.2,NNE,12.7,-,N/A,,Partly Cloudy,30,2013-03-07 16:00:00
12:00 PM,80.6,68.0,65,30.04,6.2,NNE,13.8,-,N/A,,Partly Cloudy,30,2013-03-07 17:00:00
1:00 PM,81,67,54,30.03,16,NE,13.8,,,,Mostly Cloudy,50,2013-03-07 18:00:00
1:00 PM,80.6,68.0,65,30.01,6.2,NE,13.8,-,N/A,,Mostly Cloudy,50,2013-03-07 18:00:00
2:00 PM,80.6,68.0,65,29.89,6.2,NE,12.7,-,N/A,,Mostly Cloudy,40,2013-03-07 19:00:00
3:00 PM,78.8,66.2,65,30.01,6.2,NE,13.8,-,N/A,,Scattered Clouds,50,2013-03-07 20:00:00
4:00 PM,78,66,59,30.01,16,ENE,12.7,,,,Mostly Cloudy,60,2013-03-07 21:00:00
4:00 PM,78.8,66.2,65,30.01,6.2,ENE,12.7,-,N/A,,Mostly Cloudy,60,2013-03-07 21:00:00
5:00 PM,78.8,68.0,69,30.01,6.2,ENE,9.2,-,N/A,,Mostly Cloudy,70,2013-03-07 22:00:00
6:00 PM,77.0,66.2,69,30.01,6.2,East,6.9,-,N/A,,Mostly Cloudy,90,2013-03-07 23:00:00
7:00 PM,77,67,63,30.04,12,East,9.2,,,,Mostly Cloudy,80,2013-03-08 00:00:00
7:00 PM,77.0,66.2,69,30.04,6.2,East,9.2,-,N/A,,Mostly Cloudy,80,2013-03-08 00:00:00
8:00 PM,77.0,68.0,74,30.04,6.2,ESE,4.6,-,N/A,,Scattered Clouds,110,2013-03-08 01:00:00
9:00 PM,75.2,68.0,78,30.04,6.2,ESE,5.8,-,N/A,,Scattered Clouds,110,2013-03-08 02:00:00
10:00 PM,75,67,70,30.06,12,ENE,4.6,,,,Partly Cloudy,70,2013-03-08 03:00:00
10:00 PM,75.2,68.0,78,30.06,6.2,ENE,4.6,-,N/A,,Partly Cloudy,70,2013-03-08 03:00:00
11:00 PM,75.2,68.0,78,30.06,6.2,ENE,2.3,-,N/A,,Partly Cloudy,60,2013-03-08 04:00:00